Date String (YYYY-MM-DD hh:mm:ss) UTC,Instrument flags,absolute air pressure of the measurement (hPa),sample flow rate (lpm),inlet stack bypass flow (lpm),air temperature of the measurement (°C),ambient temperature measured by the external sensor (°C),aerosol sample conditioner tube jacket temperature (°C),OPC LED temperature (°C),internal box temperature (°C),relative humidity of the measurement (%),span deviation,mass concentration of particles derived from Lorenz-Mie calculation of OPC scattering (μg/m³),mass concentration of particles derived from Lorenz-Mie calculation of OPC scattering (μg/m³),mass concentration of particles derived from Lorenz-Mie calculation of OPC scattering (μg/m³)
DateTimeUTC,F1_M11,P_M11,Q1_M11,Q2_M11,T1_M11,T2_M11,T3_M11,T4_M11,T5_M11,U1_M11,ZSPAN_M11,X2_M11,X0_M11,X1_M11
2023-12-26 12:00:00,SystemResetWarning,0822.8,5.00,000.00,018.7,017.5,000.0,027.3,020.0,10.6,0000.0,0001.39,0003.32,0000.94
2023-12-26 12:01:00,SystemResetWarning,0822.8,5.00,000.00,018.7,017.4,000.0,027.3,020.0,10.5,0000.0,0001.37,0003.34,0000.92
2023-12-26 12:02:00,SystemResetWarning,0822.7,5.01,000.00,018.7,017.5,000.0,027.2,020.0,10.6,0000.0,0001.34,0003.20,0000.91
2023-12-26 12:03:00,SystemResetWarning,0822.7,5.01,000.00,018.7,017.5,000.0,027.2,020.0,10.6,0000.0,0001.35,0002.35,0000.89
2023-12-26 12:04:00,SystemResetWarning,0822.7,5.00,000.00,018.7,017.6,000.0,027.2,020.0,10.4,0000.0,0001.32,0002.34,0000.87
2023-12-26 12:05:00,SystemResetWarning,0822.7,5.00,000.00,018.7,017.6,000.0,027.2,020.0,10.2,0000.0,0001.30,0002.35,0000.85
2023-12-26 12:06:00,SystemResetWarning,0822.7,5.00,000.00,018.7,017.6,000.0,027.2,020.0,10.2,0000.0,0001.23,0002.16,0000.83
2023-12-26 12:07:00,SystemResetWarning,0822.7,5.00,000.00,018.7,017.6,000.0,027.2,020.0,10.0,0000.0,0001.18,0002.23,0000.80
2023-12-26 12:08:00,SystemResetWarning,0822.8,4.99,000.00,018.7,017.6,000.0,027.2,020.0,10.1,0000.0,0001.08,0002.10,0000.77
2023-12-26 12:09:00,SystemResetWarning,0822.6,5.00,000.00,018.7,017.6,000.0,027.2,020.0,10.4,0000.0,0001.07,0002.76,0000.77
2023-12-26 12:10:00,SystemResetWarning,0822.8,4.99,000.00,018.7,017.6,000.0,027.2,020.0,10.6,0000.0,0001.12,0003.44,0000.78
2023-12-26 12:11:00,SystemResetWarning,0822.7,5.00,000.00,018.7,017.5,000.0,027.2,020.0,10.6,0000.0,0001.16,0005.55,0000.78
2023-12-26 12:12:00,SystemResetWarning,0822.8,5.00,000.00,018.7,017.5,000.0,027.2,020.0,10.6,0000.0,0001.16,0006.88,0000.78
2023-12-26 12:13:00,SystemResetWarning,0822.7,5.01,000.00,018.8,018.0,000.0,027.2,020.3,10.7,0000.0,0001.18,0006.96,0000.78
2023-12-26 12:14:00,SystemResetWarning,0823.2,4.99,000.00,018.9,018.8,000.0,027.2,020.7,10.8,0000.0,0001.17,0006.97,0000.78
2023-12-26 12:15:00,SystemResetWarning,0822.8,4.99,000.00,019.0,018.9,000.0,027.2,020.4,10.9,0000.0,0001.16,0007.03,0000.77
2023-12-26 12:16:00,SystemResetWarning,0822.7,5.00,000.00,018.9,018.8,000.0,027.1,020.1,11.0,0000.0,0001.13,0006.93,0000.76
2023-12-26 12:17:00,SystemResetWarning,0822.6,5.00,000.00,018.9,018.6,000.0,027.2,020.0,11.0,0000.0,0001.14,0007.23,0000.76
2023-12-26 12:18:00,SystemResetWarning,0822.6,5.00,000.00,018.9,018.4,000.0,027.2,020.0,10.7,0000.0,0001.17,0007.20,0000.77
2023-12-26 12:19:00,SystemResetWarning,0822.7,5.00,000.00,018.8,018.2,000.0,027.2,020.0,11.1,0000.0,0001.24,0007.23,0000.79
2023-12-26 12:20:00,SystemResetWarning,0822.8,5.00,000.00,018.8,018.0,000.0,027.2,020.0,11.4,0000.0,0001.25,0006.66,0000.80
2023-12-26 12:21:00,SystemResetWarning,0822.8,5.02,000.00,018.8,017.9,000.0,027.2,020.0,11.5,0000.0,0001.24,0006.02,0000.81
2023-12-26 12:22:00,SystemResetWarning,0822.8,5.00,000.00,018.8,017.8,000.0,027.2,020.0,11.5,0000.0,0001.26,0004.20,0000.83
2023-12-26 12:23:00,SystemResetWarning,0822.9,4.99,000.00,018.8,017.7,000.0,027.2,020.0,11.5,0000.0,0001.32,0002.76,0000.87
2023-12-26 12:24:00,SystemResetWarning,0822.9,4.99,000.00,018.7,017.7,000.0,027.2,020.0,11.4,0000.0,0001.32,0002.73,0000.90
2023-12-26 12:25:00,SystemResetWarning,0822.7,5.02,000.00,018.7,017.6,000.0,027.3,020.0,11.3,0000.0,0001.33,0002.65,0000.93
2023-12-26 12:26:00,SystemResetWarning,0822.7,5.01,000.00,018.7,017.6,000.0,027.2,020.0,10.9,0000.0,0001.35,0002.60,0000.95
2023-12-26 12:27:00,SystemResetWarning,0823.0,5.00,000.00,018.7,017.6,000.0,027.3,020.0,10.6,0000.0,0001.40,0002.62,0000.97
2023-12-26 12:28:00,SystemResetWarning,0822.9,4.99,000.00,018.7,017.5,000.0,027.2,020.0,10.3,0000.0,0001.43,0002.53,0001.00
2023-12-26 12:29:00,SystemResetWarning,0822.6,4.99,000.00,018.7,017.5,000.0,027.2,020.0,10.4,0000.0,0001.45,0002.44,0001.01
2023-12-26 12:30:00,SystemResetWarning,0822.7,5.00,000.00,018.7,017.5,000.0,027.2,020.0,10.6,0000.0,0001.39,0002.30,0001.00
2023-12-26 12:31:00,SystemResetWarning,0822.7,5.00,000.00,018.7,017.4,000.0,027.2,020.0,10.7,0000.0,0001.40,0002.47,0000.99
2023-12-26 12:32:00,SystemResetWarning,0822.7,5.01,000.00,018.7,017.5,000.0,027.2,020.0,10.5,0000.0,0001.43,0002.50,0000.99
2023-12-26 12:33:00,SystemResetWarning,0822.7,5.01,000.00,018.7,017.5,000.0,027.2,020.0,10.4,0000.0,0001.42,0002.44,0000.99
2023-12-26 12:34:00,SystemResetWarning,0822.8,5.01,000.00,018.7,017.5,000.0,027.2,020.0,10.6,0000.0,0001.39,0002.40,0000.96
2023-12-26 12:35:00,SystemResetWarning,0822.9,5.00,000.00,018.7,017.5,000.0,027.2,020.0,10.8,0000.0,0001.39,0002.43,0000.93
2023-12-26 12:36:00,SystemResetWarning,0822.6,5.00,000.00,018.7,017.5,000.0,027.2,020.0,11.1,0000.0,0001.37,0002.45,0000.89
2023-12-26 12:37:00,SystemResetWarning,0823.0,4.99,000.00,018.7,017.6,000.0,027.2,020.0,11.6,0000.0,0001.34,0002.47,0000.85
2023-12-26 12:38:00,SystemResetWarning,0823.0,5.02,000.00,018.7,017.6,000.0,027.2,020.0,12.0,0000.0,0001.28,0002.48,0000.82
2023-12-26 12:39:00,SystemResetWarning,0823.1,5.01,000.00,018.7,017.6,000.0,027.2,020.0,11.7,0000.0,0001.24,0002.62,0000.79
2023-12-26 12:40:00,SystemResetWarning,0822.5,5.00,000.00,018.7,017.6,000.0,027.2,020.0,11.3,0000.0,0001.20,0003.59,0000.76
2023-12-26 12:41:00,SystemResetWarning,0822.8,5.00,000.00,018.7,017.6,000.0,027.2,020.0,11.0,0000.0,0001.15,0004.02,0000.73
2023-12-26 12:42:00,SystemResetWarning,0822.8,4.99,000.00,018.7,017.6,000.0,027.2,020.0,10.7,0000.0,0001.08,0003.75,0000.69
2023-12-26 12:43:00,SystemResetWarning,0823.1,4.99,000.00,018.7,017.6,000.0,027.2,020.0,10.7,0000.0,0000.99,0003.61,0000.66
2023-12-26 12:44:00,SystemResetWarning,0823.1,5.02,000.00,018.7,017.6,000.0,027.2,020.0,11.0,0000.0,0000.95,0003.58,0000.63
2023-12-26 12:45:00,SystemResetWarning,0822.9,5.00,000.00,018.7,017.6,000.0,027.2,020.0,11.2,0000.0,0000.91,0004.30,0000.61
2023-12-26 12:46:00,SystemResetWarning,0822.8,5.00,000.00,018.7,017.6,000.0,027.2,020.0,11.4,0000.0,0000.89,0004.92,0000.61
2023-12-26 12:47:00,SystemResetWarning,0822.7,5.00,000.00,018.8,018.0,000.0,027.2,020.4,11.4,0000.0,0000.86,0004.84,0000.61
2023-12-26 12:48:00,SystemResetWarning,0823.0,5.00,000.00,018.9,018.8,000.0,027.2,020.8,11.4,0000.0,0000.82,0004.74,0000.60
2023-12-26 12:49:00,SystemResetWarning,0823.1,4.99,000.00,019.0,019.0,000.0,027.2,020.7,11.4,0000.0,0000.81,0004.64,0000.60
2023-12-26 12:50:00,SystemResetWarning,0823.0,4.99,000.00,019.0,018.9,000.0,027.2,020.4,11.2,0000.0,0000.76,0004.34,0000.58
2023-12-26 12:51:00,SystemResetWarning,0822.9,5.00,000.00,019.0,018.8,000.0,027.2,020.2,10.7,0000.0,0000.73,0003.34,0000.55
2023-12-26 12:52:00,SystemResetWarning,0822.6,5.00,000.00,019.0,018.7,000.0,027.2,020.1,10.7,0000.0,0000.74,0002.86,0000.54
2023-12-26 12:53:00,SystemResetWarning,0822.6,5.00,000.00,018.9,018.6,000.0,027.2,020.0,10.7,0000.0,0000.76,0002.88,0000.53
2023-12-26 12:54:00,SystemResetWarning,0822.6,5.00,000.00,018.9,018.4,000.0,027.2,020.0,10.7,0000.0,0000.80,0002.98,0000.53
2023-12-26 12:55:00,SystemResetWarning,0822.6,5.00,000.00,018.8,018.4,000.0,027.2,020.0,10.6,0000.0,0000.78,0002.97,0000.52
2023-12-26 12:56:00,SystemResetWarning,0822.6,5.00,000.00,018.8,018.3,000.0,027.2,020.0,10.5,0000.0,0000.79,0002.27,0000.51
2023-12-26 12:57:00,SystemResetWarning,0822.6,5.00,000.00,018.8,018.2,000.0,027.2,020.0,10.4,0000.0,0000.77,0001.48,0000.49
2023-12-26 12:58:00,SystemResetWarning,0822.7,5.01,000.00,018.8,018.2,000.0,027.2,020.0,10.8,0000.0,0000.76,0001.45,0000.48
2023-12-26 12:59:00,SystemResetWarning,0822.7,5.00,000.00,018.8,018.1,000.0,027.2,020.0,11.1,0000.0,0000.74,0001.41,0000.47
